This is the latest recevied weather packets stored in our database for station/object KB2AHZ. If no packets are shown the sender has not sent any weather packets the latest 10 day(s).
| Time | Temp. | Humidity | Pressure | Rain* | Wind** | Luminosity | Snow |
|---|---|---|---|---|---|---|---|
| 1778068718 | 18.33° C | 78% | 1013.2 hPa | 0 mm | - | 67 W/m² | - |
| 1778068416 | 18.33° C | 78% | 1013.4 hPa | 0 mm | - | 61 W/m² | - |
| 1778068114 | 17.78° C | 78% | 1013.5 hPa | 0 mm | - | 66 W/m² | - |
| 1778067811 | 17.78° C | 78% | 1013.5 hPa | 0 mm | - | 60 W/m² | - |
| 1778067510 | 17.78° C | 78% | 1013.4 hPa | 0 mm | - | 43 W/m² | - |
| 1778067207 | 17.78° C | 78% | 1013.6 hPa | 0 mm | - | 39 W/m² | - |
| 1778066903 | 17.78° C | 78% | 1013.4 hPa | 0 mm | - | 37 W/m² | - |
| 1778066601 | 17.78° C | 78% | 1013.3 hPa | 0 mm | - | 32 W/m² | - |
| 1778066298 | 17.78° C | 78% | 1013.3 hPa | 0 mm | - | 30 W/m² | - |
| 1778065996 | 17.78° C | 78% | 1013.5 hPa | 0 mm | - | 26 W/m² | - |
| 1778065693 | 17.78° C | 78% | 1013.3 hPa | 0 mm | - | 28 W/m² | - |
| 1778065390 | 17.78° C | 78% | 1013.3 hPa | 0 mm | - | 15 W/m² | - |
| 1778065087 | 17.78° C | 78% | 1013.2 hPa | 0 mm | - | 13 W/m² | - |
| 1778064784 | 17.78° C | 79% | 1013.3 hPa | 0 mm | - | 12 W/m² | - |
| 1778064481 | 17.78° C | 79% | 1013.2 hPa | 0 mm | - | 8 W/m² | - |
| 1778064179 | 17.78° C | 79% | 1013.3 hPa | 0 mm | - | 8 W/m² | - |
| 1778063876 | 17.78° C | 79% | 1013.4 hPa | 0 mm | - | 10 W/m² | - |
| 1778063574 | 17.78° C | 79% | 1013.3 hPa | 0 mm | - | 10 W/m² | - |
| 1778063271 | 17.78° C | 79% | 1013.3 hPa | 0 mm | - | 7 W/m² | - |
| 1778062969 | 17.78° C | 79% | 1013.4 hPa | 0 mm | - | 5 W/m² | - |
| 1778062665 | 17.78° C | 79% | 1013.3 hPa | 0 mm | - | 3 W/m² | - |
| 1778062362 | 17.78° C | 79% | 1013.2 hPa | 0 mm | - | 2 W/m² | - |
| 1778062060 | 17.78° C | 79% | 1013.4 hPa | 0 mm | - | 1 W/m² | - |
| 1778061758 | 17.78° C | 79% | 1013.2 hPa | 0 mm | - | 0 W/m² | - |
| 1778061456 | 17.78° C | 79% | 1013.1 hPa | 0 mm | - | 0 W/m² | - |
* Rain latest hour (hover to see other rain measurements)
** Current wind speed in m/s (hover to see current wind gust speed)